Location: ???????
(55.3754°N, 39.3545°E)
Time: 11:34:40
(UTC+00:00)

Cosmos 2322 Rocket - Pass Details

Date: 14 April 2026
Orbit: 832 x 849 km, 71.0° (Epoch: 10 May)

Event Time Altitude Azimuth Distance (km) Brightness Sun altitude
Rises 18:02:40 0° 246° (WSW) 3,375 5.7 -12.9°
Reaches altitude 10° 18:05:18 10° 255° (WSW) 2,444 5.1 -13.1°
Maximum altitude 18:10:26 36° 321° (NW) 1,313 3.9 -13.7°
Drops below altitude 10° 18:15:35 10° 27° (NNE) 2,456 4.8 -14.2°
Sets 18:18:15 0° 37° (NE) 3,395 5.4 -14.5°
